This is the latest recevied weather packets stored in our database for station/object YO2KCB-10. If no packets are shown the sender has not sent any weather packets the latest 10 day(s).
| Time | Temp. | Humidity | Pressure | Rain* | Wind** | Luminosity | Snow |
|---|---|---|---|---|---|---|---|
| 1777290865 | 22.78° C | 22% | 1020.6 hPa | - | - | - | - |
| 1777289665 | 21.67° C | 23% | 1020.8 hPa | - | - | - | - |
| 1777288465 | 21.11° C | 24% | 1021 hPa | - | - | - | - |
| 1777287264 | 20.56° C | 24% | 1021.2 hPa | - | - | - | - |
| 1777286064 | 20° C | 24% | 1021.4 hPa | - | - | - | - |
| 1777284864 | 19.44° C | 24% | 1021.7 hPa | - | - | - | - |
| 1777283664 | 18.33° C | 24% | 1021.9 hPa | - | - | - | - |
| 1777282464 | 17.22° C | 24% | 1022.1 hPa | - | - | - | - |
| 1777281263 | 16.67° C | 26% | 1022.2 hPa | - | - | - | - |
| 1777280063 | 16.67° C | 26% | 1022.4 hPa | - | - | - | - |
| 1777278863 | 16.11° C | 26% | 1022.4 hPa | - | - | - | - |
| 1777277663 | 15.56° C | 27% | 1022.6 hPa | - | - | - | - |
| 1777276462 | 14.44° C | 27% | 1022.5 hPa | - | - | - | - |
| 1777275262 | 13.89° C | 27% | 1022.4 hPa | - | - | - | - |
| 1777274061 | 12.78° C | 28% | 1022.4 hPa | - | - | - | - |
| 1777272861 | 12.22° C | 28% | 1022.2 hPa | - | - | - | - |
| 1777271661 | 11.67° C | 28% | 1022.3 hPa | - | - | - | - |
| 1777270461 | 11.11° C | 29% | 1022.4 hPa | - | - | - | - |
| 1777269261 | 10.56° C | 29% | 1022.3 hPa | - | - | - | - |
| 1777268060 | 10° C | 29% | 1022.3 hPa | - | - | - | - |
| 1777266859 | 10° C | 30% | 1022.2 hPa | - | - | - | - |
| 1777265659 | 9.44° C | 30% | 1022.2 hPa | - | - | - | - |
| 1777264459 | 8.89° C | 29% | 1022 hPa | - | - | - | - |
| 1777263258 | 8.89° C | 30% | 1021.8 hPa | - | - | - | - |
| 1777262058 | 8.33° C | 30% | 1021.6 hPa | - | - | - | - |
* Rain since midnight (hover to see other rain measurements)
** Current wind speed in m/s (hover to see current wind gust speed)